ATLAS 5 CENTAUR DEB, 44648

Orbit data source: Space-Track

ATLAS 5 CENTAUR DEB, 44648 is space debris in HEO originally from a launch on Wed, 17 Oct 2018 UTC launched from the Air Force Eastern Test Range (AFETR). Debris objects in space refer to the collection of defunct objects orbiting the Earth. Examples of debris include non-operational satellites, rocket bodies, and fragments generated from explosions, collisions, or faulty payload assembly.

Loading next visibility...
ATLAS 5 CENTAUR DEB details
Identifier
44648, 2018-079J
Orbit
HEO
Last TLE update1 week ago
Origin
Flag of USULA (US)
ManufacturerULA Decatur
MissionSpacecraft
Bus & MotorUnknown
MassUnknown
Launch date (UTC)
2018-10-17 (6 years ago)
Launch vehicleUnknown
Launch site
Air Force Eastern Test Range (AFETR)
Object type
Payload
Rocket body
Debris
Shape & HBRUnknown
Radar Cross SectionRCS unknown

Expand to show TLE details & history

TLE from 1 week ago
0 ATLAS 5 CENTAUR DEB
1 44648U 18079J   24351.90001916 -.00000131  00000-0  00000-0 0  9998
2 44648  12.5782  73.3209 4470725 248.7750  58.6184  1.92373670 43174
Epoch: 2024-12-16T21:36Z
Definitive object data (Epoch: 2024-12-16T21:36:01.655Z)
Latitude0.00004°
Longitude23.22974°
Altitude19,715.825 km
Speed3.994 km/s
True Right ascension04h 53m 00s
True Declination0° 00' 00"
Sunlit
Object was in daylight at TLE epoch
Visualization TLE readout
Latitude11.00003°
Longitude142.0268°
Altitude24,641.899 km
Speed3.332 km/s
Apparent Right ascension12h 45m 02s
Apparent Declination4° 06' 59"
Sunlit
Object is in daylight
Visualization observer readout
Local Sidereal Time13:04:43
Azimuth188.354° SSW
Elevation53.925°
Doppler factor1
Orbital elements
Apogee altitude33,142.924 km
Perigee altitude8,722.89 km
Semi-major axis27,311.044 km
Eccentricity0.4470725
Inclination12.5782°
RAAN73.3209°
Arg. of periapsis248.775°
True anomaly111.15136°
Mean anomaly58.6184°
Eccentric anomaly84.09799°
Mean motion0.48088 °/min
BSTARUnknown
Orbital period748.63 mins
Loading maneuver chart data...

ATLAS 5 CENTAUR DEB Visibility forecast

Observer location: undefined°, undefined

Span
Click to sort rows by Start time (UTC) header in descending order
Start Az.
Max El. time (UTC)
Max El. Az.
Max El.
End time (UTC)
End Az.
133 mins2024-12-26 13:42:59.705Z188.348° SSW2024-12-26 13:42:59.705Z188.348° SSW38.938°2024-12-26 15:55:59.705Z129.284° SE
450 mins2024-12-27 06:12:59.705Z230.517° WSW2024-12-27 10:59:59.705Z214.008° SW38.174°2024-12-27 13:42:59.705Z221.198° SW
|